Location: Newark
(36.0797°N, 3.9744°E)
Time: 02:54:58
(UTC+00:00)

Vanguard 2 - Pass Details

Date: 09 December 2019
Orbit: 553 x 2938 km, 32.9° (Epoch: 23 January)

Event Time Altitude Azimuth Distance (km) Brightness Sun altitude
Exits shadow 03:36:24 57° 248° (WSW) 3,294 10.2 -36.9°
Maximum altitude 03:41:36 80° 176° (S) 2,930 10.2 -35.8°
Drops below altitude 10° 03:57:25 10° 93° (E) 5,008 12.5 -32.6°
Sets 04:00:47 0° 92° (E) 5,767 13.1 -32.0°
